Regional Weather Roundup
Issued by NWS

Home | Current Version | Previous Version | Text Only | Print | Product List | Glossary Off
Versions: 1 2 3 4 5 6 7 8 9 10 11 12 13 14 15 16 17 18 19 20 21 22 23 24 25 26 27 28 29 30 31 32 33 34 35 36 37 38 39 40 41 42 43 44 45 46 47 48 49 50

000
ASUS43 KLSX 302359
RWRMO

WEATHER SUMMARY FOR MISSOURI
NATIONAL WEATHER SERVICE SPRINGFIELD MO
600 PM CST FRI JAN 30 2015

NOTE: "FAIR" INDICATES FEW OR NO CLOUDS BELOW 12,000 FEET WITH NO
       SIGNIFICANT WEATHER AND/OR OBSTRUCTIONS TO VISIBILITY.
       CURRENT SKY AND/OR WEATHER CONDITIONS ARE NOT AVAILABLE FOR
       CHILLICOTHE AND FARMINGTON.

MOZ001>031-035>038-043-044-053-054-310100-
...NORTHERN AND WESTERN MISSOURI...

CITY           SKY/WX    TMP DP  RH WIND       PRES   REMARKS
KANSAS CTY INT CLOUDY    33  19  56 S6        30.38F WCI  28
6HR MIN TEMP:  32; 6HR MAX TEMP:  39;

KANSAS C DTWN  CLOUDY    37  19  48 E6        30.39F
6HR MIN TEMP:  34; 6HR MAX TEMP:  42;

LEE`S SUMMIT   CLOUDY    38  18  44 S6        30.40F
6HR MIN TEMP:  32; 6HR MAX TEMP:  41;

ST JOSEPH      CLOUDY    31  19  61 S6        30.39F WCI  25
6HR MIN TEMP:  31; 6HR MAX TEMP:  38;

CHILLICOTHE      N/A     32  19  58 S3        30.43F
6HR MIN TEMP:  31; 6HR MAX TEMP:  38;

KIRKSVILLE     CLEAR     30  18  60 S6        30.42F WCI  24
6HR MIN TEMP:  29; 6HR MAX TEMP:  36;


$$
MOZ066>068-077>081-088>096-101>105-310100-
...SOUTHWEST MISSOURI...

CITY           SKY/WX    TMP DP  RH WIND       PRES   REMARKS
SPRINGFIELD    CLOUDY    42  15  33 CALM      30.39F
6HR MIN TEMP:  39; 6HR MAX TEMP:  48;

JOPLIN         CLOUDY    43  22  43 NE3       30.41F
6HR MIN TEMP:  39; 6HR MAX TEMP:  47;


$$
MOZ032>034-039>042-045>050-055>058-069>072-310100-
...CENTRAL MISSOURI...

CITY           SKY/WX    TMP DP  RH WIND       PRES   REMARKS
COLUMBIA       PTCLDY    34  17  50 CALM      30.42F
6HR MIN TEMP:  34; 6HR MAX TEMP:  40;

JEFFERSON CITY MOCLDY    37  17  44 CALM      30.44F
6HR MIN TEMP:  33; 6HR MAX TEMP:  41; 6HR PCP: TRACE;

ROLLA          MOCLDY    31  19  61 CALM      30.40F
6HR MIN TEMP:  31; 6HR MAX TEMP:  42;

SEDALIA        MOCLDY    37  18  46 CALM      30.43F
6HR MIN TEMP:  34; 6HR MAX TEMP:  41;

OSAGE BEACH    CLOUDY    37  18  44 CALM      30.42F

$$
MOZ051-052-059>065-310100-
...EAST CENTRAL MISSOURI...

CITY           SKY/WX    TMP DP  RH WIND       PRES   REMARKS
ST LOUIS INTL  NOT AVBL
SPIRIT OF STL  CLEAR     28  19  69 CALM      30.45S
6HR MIN TEMP:  28; 6HR MAX TEMP:  40;

ST CHARLES     CLEAR     33  19  56 CALM      30.47S
6HR MIN TEMP:  33; 6HR MAX TEMP:  38;


$$
MOZ072>076-082>087-097>100-106>115-310100-
...SOUTH CENTRAL AND SOUTHEAST MISSOURI...

CITY           SKY/WX    TMP DP  RH WIND       PRES   REMARKS
CAPE GIRARDEAU PTCLDY    39  22  50 CALM      30.46S
6HR MIN TEMP:  35; 6HR MAX TEMP:  44;

FARMINGTON     PTCLDY    34  18  51 NE5       30.46S WCI  30
6HR MIN TEMP:  34; 6HR MAX TEMP:  41;

POPLAR BLUFF   PTCLDY    38  25  59 VRB3      30.45F
6HR MIN TEMP:  38; 6HR MAX TEMP:  43;

WEST PLAINS    MOCLDY    39  16  39 E3        30.41F
6HR MIN TEMP:  38; 6HR MAX TEMP:  48;


$$


USA.gov is the U.S. government's official web portal to all federal, state and local government web resources and services.